sat.trackr.live / text

‹ back to catalog

STARLINK-35513

NORAD 65930 · 2025-225W

PAYLOAD ACTIVE UNKNOWN

§ Identity

Operator
Country
US
Launch date
2025-10-08
Launch site
AFWTR
Launch vehicle
Mass (kg)
RCS (m²)

Purposes: comms

External: N2YO · Heavens-Above · Gunter

§ Orbital elements

Epoch: 2026-05-24T12:08:54.945600Z

Period
94.11 min
Inclination
53.1578°
Eccentricity
0.0001173
Mean motion
15.30204370 rev/d
Perigee alt
474.4 km
Apogee alt
476.0 km
Semi-major
6,853.3 km
B*
4.3194e-4
RAAN
173.6838°
Arg perigee
91.9890°
Mean anomaly
268.1245°
Rev number
3,601

§ Raw data

STARLINK-355131 65930U 25225W   26144.50619150  .00012457  00000+0  43194-3 0  99952 65930  53.1578 173.6838 0001173  91.9890 268.1245 15.30204370 36011

JSON: /api/v1/satellites/65930 · /tle

For live sub-satellite position, see the globe view (requires WebGL).

§ Visibility from observer

Set your observer location to see the next 7 days of passes ≥ 10°. The values pass through the URL so the page stays shareable.

No JS? Fill the form by hand. The geolocation button needs JavaScript.